This is the latest recevied weather packets stored in our database for station/object G1OCN-WX. If no packets are shown the sender has not sent any weather packets the latest 1 day(s).
| Time | Temp. | Humidity | Pressure | Rain* | Wind** | Luminosity | Snow |
|---|---|---|---|---|---|---|---|
| 1777996273 | 15.56° C | 58% | 1012.2 hPa | 0 mm | 5.36 m/s, 346° | - | - |
| 1777996213 | 15.56° C | 59% | 1012.2 hPa | 0 mm | 5.81 m/s, 347° | - | - |
| 1777996153 | 15° C | 59% | 1012.3 hPa | 0 mm | 5.36 m/s, 15° | - | - |
| 1777996093 | 15° C | 59% | 1012.3 hPa | 0 mm | 4.47 m/s, 348° | - | - |
| 1777996033 | 15° C | 58% | 1012.2 hPa | 0 mm | 4.47 m/s, 351° | - | - |
| 1777995973 | 15° C | 58% | 1012.2 hPa | 0 mm | 5.81 m/s, 343° | - | - |
| 1777995913 | 15° C | 58% | 1012.2 hPa | 0 mm | 5.36 m/s, 0° | - | - |
| 1777995853 | 15° C | 58% | 1012.2 hPa | 0 mm | 5.81 m/s, 340° | - | - |
| 1777995793 | 15.56° C | 58% | 1012.3 hPa | 0 mm | 5.81 m/s, 334° | - | - |
| 1777995732 | 15.56° C | 58% | 1012.3 hPa | 0 mm | 4.47 m/s, 339° | - | - |
| 1777995672 | 15.56° C | 58% | 1012.3 hPa | 0 mm | 4.02 m/s, 346° | - | - |
| 1777995612 | 15.56° C | 58% | 1012.3 hPa | 0 mm | 3.58 m/s, 352° | - | - |
| 1777995552 | 15.56° C | 57% | 1012.3 hPa | 0 mm | 3.13 m/s, 352° | - | - |
| 1777995492 | 15.56° C | 56% | 1012.3 hPa | 0 mm | 3.58 m/s, 338° | - | - |
| 1777995432 | 15.56° C | 57% | 1012.3 hPa | 0 mm | 3.58 m/s, 4° | - | - |
| 1777995372 | 15.56° C | 57% | 1012.4 hPa | 0 mm | 3.58 m/s, 353° | - | - |
| 1777995312 | 15.56° C | 58% | 1012.4 hPa | 0 mm | 3.58 m/s, 352° | - | - |
| 1777995222 | 15.56° C | 57% | 1012.4 hPa | 0 mm | 4.47 m/s, 354° | - | - |
| 1777995162 | 15.56° C | 57% | 1012.4 hPa | 0 mm | 5.36 m/s, 6° | - | - |
| 1777995102 | 15.56° C | 56% | 1012.4 hPa | 0 mm | 5.36 m/s, 350° | - | - |
| 1777995012 | 15.56° C | 56% | 1012.4 hPa | 0 mm | 4.47 m/s, 354° | - | - |
| 1777994952 | 15.56° C | 55% | 1012.4 hPa | 0 mm | 6.26 m/s, 346° | - | - |
| 1777994892 | 15.56° C | 55% | 1012.4 hPa | 0 mm | 5.36 m/s, 340° | - | - |
| 1777994832 | 15.56° C | 57% | 1012.4 hPa | 0 mm | 3.58 m/s, 356° | - | - |
| 1777994773 | 15.56° C | 56% | 1012.3 hPa | 0 mm | 3.58 m/s, 41° | - | - |
* Rain latest hour (hover to see other rain measurements)
** Current wind speed in m/s (hover to see current wind gust speed)